This is the latest recevied weather packets stored in our database for station/object SV1BYK-2. If no packets are shown the sender has not sent any weather packets the latest 10 day(s).
| Time | Temp. | Humidity | Pressure | Rain* | Wind** | Luminosity | Snow |
|---|---|---|---|---|---|---|---|
| 1778226974 | 20° C | 58% | 1013 hPa | 0 mm | - | 0 W/m² | - |
| 1778226436 | 20° C | 58% | 1012.9 hPa | 0 mm | - | 0 W/m² | - |
| 1778225894 | 20° C | 55% | 1013.2 hPa | 0 mm | - | 0 W/m² | - |
| 1778225224 | 20° C | 54% | 1013.1 hPa | 0 mm | - | 0 W/m² | - |
| 1778224813 | 20° C | 53% | 1013 hPa | 0 mm | - | 0 W/m² | - |
| 1778224144 | 20° C | 49% | 1013.4 hPa | 0 mm | - | 0 W/m² | - |
| 1778223604 | 20.56° C | 48% | 1013.4 hPa | 0 mm | - | 0 W/m² | - |
| 1778223375 | 20.56° C | 47% | 1013.8 hPa | 0 mm | - | 0 W/m² | - |
| 1778222703 | 20.56° C | 45% | 1013.6 hPa | 0 mm | - | 0 W/m² | - |
| 1778222163 | 20° C | 44% | 1013.4 hPa | 0 mm | - | 0 W/m² | - |
| 1778221624 | 20° C | 43% | 1013.2 hPa | 0 mm | - | 0 W/m² | - |
| 1778221214 | 20° C | 43% | 1013.2 hPa | 0 mm | - | 0 W/m² | - |
| 1778220544 | 20° C | 43% | 1013 hPa | 0 mm | - | 0 W/m² | - |
| 1778220004 | 20° C | 44% | 1012.7 hPa | 0 mm | - | 0 W/m² | - |
| 1778219644 | 20° C | 46% | 1012.5 hPa | 0 mm | - | 0 W/m² | - |
| 1778219104 | 20° C | 49% | 1012 hPa | 0 mm | - | 0 W/m² | - |
| 1778218695 | 20° C | 46% | 1011.9 hPa | 0 mm | - | 0 W/m² | - |
| 1778218157 | 20° C | 52% | 1011.7 hPa | 0 mm | - | 0 W/m² | - |
| 1778217614 | 19.44° C | 53% | 1011.7 hPa | 0 mm | - | 0 W/m² | - |
| 1778216944 | 19.44° C | 54% | 1011.4 hPa | 0 mm | - | 0 W/m² | - |
| 1778216404 | 19.44° C | 55% | 1011.6 hPa | 0 mm | - | 0 W/m² | - |
| 1778216176 | 19.44° C | 55% | 1011.3 hPa | 0 mm | - | 0 W/m² | - |
| 1778215633 | 19.44° C | 55% | 1011.1 hPa | 0 mm | - | 0 W/m² | - |
| 1778215096 | 18.89° C | 55% | 1011.3 hPa | 0 mm | - | 0 W/m² | - |
| 1778214558 | 18.89° C | 55% | 1011.1 hPa | 0 mm | - | 0 W/m² | - |
* Rain latest hour (hover to see other rain measurements)
** Current wind speed in m/s (hover to see current wind gust speed)